This demonstration page uses our WeatherBlox Daily Observations layout. Learn more.

Left ArrowRight Arrow

Hourly Observations for August 13, 2015

Temp ( °F °C ) Dew Point ( °F °C ) Humidity (%) Winds ( mph kmh ) Pressure ( in mb ) Visibility ( mi km ) Precip ( " mm )
12:54 am 00:54 Clear 67 19.4 62 16.7 84 84 S 7 11 30.09 1019 10 16.0934 0 0
1:54 am 01:54 Clear 66 18.9 61 16.1 84 84 S 7 11 30.09 1019 10 16.0934 0 0
2:54 am 02:54 Clear 67 19.4 61 16.1 81 81 Calm 30.09 1019 10 16.0934 0 0
3:54 am 03:54 Clear 66 18.9 60 15.6 81 81 S 5 7 30.08 1019 10 16.0934 0 0
4:54 am 04:54 Clear 66 18.9 61 16.1 84 84 SSE 5 7 30.08 1019 10 16.0934 0 0
5:54 am 05:54 Clear 64 17.8 61 16.1 90 90 SSE 5 7 30.1 1019 10 16.0934 0 0
6:54 am 06:54 Sunny 63 17.2 60 15.6 90 90 S 5 7 30.1 1019 10 16.0934 0 0
7:54 am 07:54 Sunny 67 19.4 63 17.2 87 87 SSE 5 7 30.11 1020 10 16.0934 0 0
8:54 am 08:54 Sunny 73 22.8 64 17.8 74 74 S 7 11 30.11 1020 10 16.0934 0 0
9:54 am 09:54 Sunny 80 26.7 62 16.7 54 54 SW 16 26 30.09 1019 10 16.0934 0 0
10:54 am 10:54 Sunny 83 28.3 63 17.2 51 51 SSW 13 20 30.09 1019 10 16.0934 0 0
11:54 am 11:54 Sunny 86 30 64 17.8 48 48 SSW 15 24 30.09 1019 10 16.0934 0 0
12:54 pm 12:54 Sunny 87 30.6 63 17.2 45 45 SW 15 24 30.07 1018 10 16.0934 0 0
1:54 pm 13:54 Sunny 88 31.1 63 17.2 43 43 SSW 12 19 30.06 1018 10 16.0934 0 0
2:54 pm 14:54 Sunny 88 31.1 64 17.8 45 45 S 9 15 30.05 1018 10 16.0934 0 0
3:54 pm 15:54 Sunny 89 31.7 64 17.8 43 43 SSW 9 15 30.04 1017 10 16.0934 0 0
4:54 pm 16:54 Partly Cloudy 89 31.7 63 17.2 42 42 S 12 19 30.03 1017 10 16.0934 0 0
5:54 pm 17:54 Sunny 88 31.1 64 17.8 45 45 SSW 10 17 30.01 1016 10 16.0934 0 0
6:54 pm 18:54 Sunny 87 30.6 64 17.8 46 46 S 13 20 30.01 1016 10 16.0934 0 0
7:54 pm 19:54 Sunny 83 28.3 64 17.8 53 53 S 9 15 30.02 1017 10 16.0934 0 0
8:54 pm 20:54 Clear 78 25.6 65 18.3 64 64 S 6 9 30.04 1017 10 16.0934 0 0
9:54 pm 21:54 Clear 76 24.4 65 18.3 69 69 S 8 13 30.05 1018 10 16.0934 0 0
10:54 pm 22:54 Clear 77 25 65 18.3 66 66 S 10 17 30.04 1017 10 16.0934 0 0
11:54 pm 23:54 Clear 74 23.3 64 17.8 71 71 S 8 13 30.06 1018 10 16.0934 0 0

Powered by AerisWeather